ContactaLinksHome
    
DADES METEOROLÒGIQUES DE LES ÚLTIMES 24 HORES
 

Taire  Temperatura de l'aire  (ºC)
HumitatR  Humitat relativa de l'aire (%)
Pluja  Litres de pluja per metre cuadrat caiguts en 10 minuts (l/m²)
VelVent  Velocitat mitjana del vent (m/s)
DirVent  Direcció del vent  (º)
RadSolar  Intensitat de Radiació solar (w/m²)
PressAtm  Pressió atmosfèrica (mb)
  ***Dades sense verificar
DataTaireHumitatRPlujaVelVentDirVentRadSolarPressAtm
22/03/2019 17:00:0015.6500,03.5751641026
22/03/2019 16:50:0015.6500,03.0741921025
22/03/2019 16:40:0015.6490,03.8702231025
22/03/2019 16:30:0015.7500,04.1712541025
22/03/2019 16:20:0015.7520,03.2692811026
22/03/2019 16:10:0015.9530,03.1673111026
22/03/2019 16:00:0016.0550,01.6733371026
22/03/2019 15:50:0015.9570,01.2593651026
22/03/2019 15:40:0015.7560,01.6773931026
22/03/2019 15:30:0015.5560,02.4784241026
22/03/2019 15:20:0015.4540,03.3834521026
22/03/2019 15:10:0015.4520,03.1874791026
22/03/2019 15:00:0015.2510,03.8825051026
22/03/2019 14:50:0015.3530,03.7745271026
22/03/2019 14:40:0015.1560,04.5725521026
22/03/2019 14:30:0015.0590,04.2745791026
22/03/2019 14:20:0014.8600,04.6776021026
22/03/2019 14:10:0014.9600,05.1886241026
22/03/2019 14:00:0015.2580,04.7756451026
22/03/2019 13:50:0015.3550,05.1686671026
22/03/2019 13:40:0015.4560,04.6696901026
22/03/2019 13:30:0015.4560,04.0617071026
22/03/2019 13:20:0015.4590,04.0597251026
22/03/2019 13:10:0015.2600,04.3577401026
22/03/2019 13:00:0015.3590,04.7657511026
22/03/2019 12:50:0015.2580,05.2717631027
22/03/2019 12:40:0015.2590,04.9807751027
22/03/2019 12:30:0015.3600,05.0707831027
22/03/2019 12:20:0015.3620,04.2687921027
22/03/2019 12:10:0015.1640,03.0607951027
22/03/2019 12:00:0015.2610,03.9967961027
22/03/2019 11:50:0014.8610,05.81077941027
22/03/2019 11:40:0015.7600,06.71127891027
22/03/2019 11:30:0015.8490,06.01057861027
22/03/2019 11:20:0015.9490,05.41067791027
22/03/2019 11:10:0015.8490,05.31087741027
22/03/2019 11:00:0015.8490,05.31017651027
22/03/2019 10:50:0015.9480,04.9947531027
22/03/2019 10:40:0015.9460,05.4927401027
22/03/2019 10:30:0015.8490,05.3957231027
22/03/2019 10:20:0015.6490,05.01017011027
22/03/2019 10:10:0015.9490,04.01016681027
22/03/2019 10:00:0016.4500,01.31106411027
22/03/2019 9:50:0016.6390,00.61246281027
22/03/2019 9:40:0017.0380,00.4496121027
22/03/2019 9:30:0016.6340,00.2955871027
22/03/2019 9:20:0016.6330,00.42885631027
22/03/2019 9:10:0016.8340,00.33025321027
22/03/2019 9:00:0016.9380,01.0904991027
22/03/2019 8:50:0016.9310,02.1544761027
22/03/2019 8:40:0016.7310,02.6474521027
22/03/2019 8:30:0016.4300,03.0394261027
22/03/2019 8:20:0016.2280,03.8243981027
22/03/2019 8:10:0016.0280,04.3353711027
22/03/2019 8:00:0015.0340,01.6323431027
22/03/2019 7:50:0013.1360,03.62983101027
22/03/2019 7:40:0013.1340,03.82842781027
22/03/2019 7:30:0013.0330,03.03172481027
22/03/2019 7:20:0012.4360,03.13142111027
22/03/2019 7:10:0012.5330,03.43111851027
22/03/2019 7:00:0012.0350,03.93141391027
22/03/2019 6:50:0011.5370,03.93201031027
22/03/2019 6:40:0011.6380,03.7302881027
22/03/2019 6:30:0011.6370,03.1301541027
22/03/2019 6:20:0011.5360,03.3299291026
22/03/2019 6:10:0011.5370,03.3298151026
22/03/2019 6:00:0011.4380,03.331241026
22/03/2019 5:50:0011.4370,03.931001026
22/03/2019 5:40:0011.3380,03.631701026
22/03/2019 5:30:0011.4380,03.831701026
22/03/2019 5:20:0011.4380,04.331101026
22/03/2019 5:10:0011.5390,03.231801026
22/03/2019 5:00:0011.5390,03.229201026
22/03/2019 4:50:0011.9390,02.629901026
22/03/2019 4:40:0013.9350,02.132101026
22/03/2019 4:30:0014.3300,02.9301026
22/03/2019 4:20:0014.4290,03.12101026
22/03/2019 4:10:0014.4280,03.71901026
22/03/2019 4:00:0014.4290,03.21801026
22/03/2019 3:50:0014.4300,03.13301026
22/03/2019 3:40:0014.2330,03.23321026
22/03/2019 3:30:0012.4350,02.034701026
22/03/2019 3:20:0012.8340,02.232401026
22/03/2019 3:10:0013.9310,02.235501026
22/03/2019 3:00:0014.0300,03.4401026
22/03/2019 2:50:0014.1310,02.71501026
22/03/2019 2:40:0014.3280,04.1201026
22/03/2019 2:30:0014.4280,05.12101026
22/03/2019 2:20:0014.4300,05.51901026
22/03/2019 2:10:0014.3290,04.92111026
22/03/2019 2:00:0013.8450,02.81311026
22/03/2019 1:50:0011.7450,02.131501026
22/03/2019 1:40:0011.4480,02.932301026
22/03/2019 1:30:0011.2510,02.931001026
22/03/2019 1:20:0011.2520,03.232501027
22/03/2019 1:10:0010.9550,03.533701027
22/03/2019 1:00:0010.7550,03.532601027
22/03/2019 0:50:0010.7560,04.231601027
22/03/2019 0:40:0010.9550,04.731601027
22/03/2019 0:30:0011.0540,04.731501027
22/03/2019 0:20:0011.2540,04.131701027
22/03/2019 0:10:0011.3520,04.232801027
22/03/2019 0:00:0011.3530,03.432101027
21/03/2019 23:50:0011.4520,03.332901027
21/03/2019 23:40:0011.6530,02.932501027
21/03/2019 23:30:0011.8510,03.232501027
21/03/2019 23:20:0011.9500,03.132701027
21/03/2019 23:10:0011.9500,02.931201027
21/03/2019 23:00:0011.9530,02.832101027
21/03/2019 22:50:0011.6540,01.831601028
21/03/2019 22:40:0011.7540,01.835101028
21/03/2019 22:30:0011.9540,02.434001028
21/03/2019 22:20:0012.0540,02.433701028
21/03/2019 22:10:0012.2530,02.632401027
21/03/2019 22:00:0012.3530,02.332401027
21/03/2019 21:50:0012.3530,02.231101027
21/03/2019 21:40:0012.2550,02.132601027
21/03/2019 21:30:0012.1560,02.132801027
21/03/2019 21:20:0012.1570,02.432301027
21/03/2019 21:10:0012.1570,02.730801027
21/03/2019 21:00:0012.2570,02.732701027
21/03/2019 20:50:0012.3560,02.633001027
21/03/2019 20:40:0012.3550,02.532701027
21/03/2019 20:30:0012.6540,02.332001027
21/03/2019 20:20:0013.0540,01.633001027
21/03/2019 20:10:0013.1550,01.233201027
21/03/2019 20:00:0013.1570,01.035101027
21/03/2019 19:50:0013.0570,00.86001027
21/03/2019 19:40:0012.9560,00.67201027
21/03/2019 19:30:0013.1550,00.15101027
21/03/2019 19:20:0013.2560,00.832101027
21/03/2019 19:10:0013.3550,01.533501027
21/03/2019 19:00:0013.3560,02.01901027
21/03/2019 18:50:0013.3590,03.63801027
21/03/2019 18:40:0013.4610,06.26601026
21/03/2019 18:30:0013.5610,06.67701026
21/03/2019 18:20:0013.4590,06.57501026
21/03/2019 18:10:0013.4600,05.48021026
21/03/2019 18:00:0013.3580,03.98071026
21/03/2019 17:50:0013.2590,02.798181026
21/03/2019 17:40:0013.4580,03.180421026
21/03/2019 17:30:0013.5570,02.776691026
21/03/2019 17:20:0013.5560,02.6851011026
21/03/2019 17:10:0013.4560,02.4861321026

ÚLTIMES FOTOS WEBCAM
Imatges del Pont
ÚLTIMES DADES

22/03/2019  
18:00h Local  (17:00 GMT)
 
 Velocitat mitjana del Vent
   3,5 m/s
 Direcció del Vent
   75º
 Humitat Relativa
   50 %
 Temperatura Aparent
   15,6 ºC
 Pluja Acumulada
   0,0 l/m²
      
 Temperatura de l'aigua    N/A
 Alçada d'ona    N/A
 Direcció d'ona    N/A
 Velocitat del corrent    N/A
 Direcció del corrent    N/A